[Iaude] MPEC V84: 2023 VM2 [a=1.57,e=0.35,i=13.9,H=24.8]

mpec at marsden.cfa.harvard.edu mpec at marsden.cfa.harvard.edu
Tue Nov 7 01:48:04 EST 2023


M.P.E.C. 2023-V84                              Issued 2023 November 7, 06:46 UT

     The Minor Planet Electronic Circulars contain information on unusual
         minor planets, routine data on comets and natural satellites,
         and occasional editorial announcements.  They are published
    on behalf of Division F of the International Astronomical Union by the
          Minor Planet Center, Smithsonian Astrophysical Observatory,
                          Cambridge, MA 02138, U.S.A.
			  
             Prepared using the Tamkin Foundation Computer Network

                              MPC at CFA.HARVARD.EDU
            URL https://www.minorplanetcenter.net/    ISSN 1523-6714

                                    2023 VM2                                    


Observations:
     K23V02M  C2023 11 05.37916 03 39 16.34 +08 06 09.1          21.2 GVEV084G96
     K23V02M  C2023 11 05.38438 03 39 17.51 +08 05 29.4          20.6 GVEV084G96
     K23V02M*1C2023 11 06.38053503 43 23.848+05 55 33.85         20.65GVEV084G96
     K23V02M 1C2023 11 06.39095303 43 26.220+05 54 09.29         21.72GVEV084G96
     K23V02M 1C2023 11 06.39617203 43 27.379+05 53 28.43         21.09GVEV084G96
     K23V02M |C2023 11 07.18839 03 46 50.55 +04 07 18.4          20.9 VuEV084807
     K23V02M |C2023 11 07.19819 03 46 52.78 +04 05 57.4          21.3 VuEV084807
     K23V02M |C2023 11 07.20799 03 46 55.03 +04 04 36.5          21.4 VuEV084807
     K23V02M KB2023 11 07.24681 03 47 05.78 +03 57 51.6          21.2 GVEV084734
     K23V02M KB2023 11 07.25543 03 47 07.76 +03 56 39.9          21.8 GVEV084734
     K23V02M KB2023 11 07.26405 03 47 09.76 +03 55 28.1          20.4 GVEV084734

Observer details:
734 Farpoint Observatory, Eskridge.  Observer .
807 Cerro Tololo Observatory, La Serena.  Observers T. Linder, R. Holmes, L.
    Horn.  0.61-m f/6.5 Dall-Kirkham Astrograph + CCD.
G96 Mt. Lemmon Survey.  Observer J. B. Fazekas.  Measurers B. Gray, D. Rankin,
    F. C. Shelly, E. C. Beshore, D. Fay, J. B. Fazekas, D. C. Fuls, A. R.
    Gibbs, A. D. Grauer, H. Groeller, J. K. Hogan, R. A. Kowalski, S. M.
    Larson, G. J. Leonard, R. L. Seaman, K. W. Wierzchos.  1.5-m reflector +
    10K CCD.

Orbital elements:
2023 VM2                                                 Earth MOID = 0.1070 AU
Epoch 2023 Sept. 13.0 TT = JDT 2460200.5                MPC                     
M 310.70217              (2000.0)            P               Q                  
n   0.50242779     Peri.  232.05279     +0.00102524     -0.98859398             
a   1.5670648      Node   218.71987     +0.97631606     +0.03357178             
e   0.3497722      Incl.   13.93170     +0.21634670     -0.14681583             
P   1.96           H   24.85          G   0.15           U   8                  
Residuals in seconds of arc
231105 G96  0.1-  0.1-    231106 G96  0.2-  0.1+    231107 734  0.9+  0.5+
231105 G96  0.3+  0.2+    231107 807  0.0   0.0     231107 734  0.5+  0.2+
231106 G96  0.2-  0.2+    231107 807  0.3-  0.1-    231107 734  0.4+  0.2-
231106 G96  0.1+  0.9-    231107 807  0.2-  0.1+

Ephemeris:
2023 VM2                 a,e,i = 1.57, 0.35, 14                  q = 1.0189
Date    TT    R. A. (2000) Decl.     Delta      r    Elong.  Phase     V
2023 10 08    02 19 46.7 +35 30 50   0.2778  1.2347   143.9    28.5    23.8
...
2023 10 23    02 54 06.7 +27 45 06   0.1819  1.1650   157.2    19.3    22.5
...
2023 10 31    03 18 59.1 +18 02 41   0.1426  1.1313   164.9    13.2    21.7
...
2023 11 06    03 41 49.9 +06 46 30   0.1213  1.1080   162.9    15.3    21.3
2023 11 07    03 46 01.2 +04 32 35   0.1187  1.1043   161.3    16.7    21.3
2023 11 08    03 50 19.3 +02 13 13   0.1163  1.1007   159.5    18.3    21.3
...
2023 11 14    04 18 26.3 -13 00 34   0.1083  1.0802   145.2    31.5    21.5
...
2023 11 22    05 01 26.3 -32 28 35   0.1141  1.0569   124.7    50.2    22.1
...
2023 12 07    06 28 12.4 -53 12 11   0.1551  1.0274   101.4    70.0    23.3

A. U. Tomatic                (C) Copyright 2023 MPC           M.P.E.C. 2023-V84




More information about the Iaude mailing list